Year,Month,Day,Hour,Minute,Value (Times are PST for temperature in C)
2011,09,15,00,00,14.60
2011,09,15,00,01,14.60
2011,09,15,00,02,14.60
2011,09,15,00,03,14.60
2011,09,15,00,04,14.60
2011,09,15,00,05,14.60
2011,09,15,00,06,14.60
2011,09,15,00,07,14.60
2011,09,15,00,08,14.60
2011,09,15,00,09,14.60
2011,09,15,00,10,14.60
2011,09,15,00,11,14.60
2011,09,15,00,12,14.50
2011,09,15,00,13,14.50
2011,09,15,00,14,14.50
2011,09,15,00,15,14.50
2011,09,15,00,16,14.50
2011,09,15,00,17,14.50
2011,09,15,00,18,14.50
2011,09,15,00,19,14.50
2011,09,15,00,20,14.50
2011,09,15,00,21,14.50
2011,09,15,00,22,14.50
2011,09,15,00,23,14.50
2011,09,15,00,24,14.50
2011,09,15,00,25,14.50
2011,09,15,00,26,14.50
2011,09,15,00,27,14.50
2011,09,15,00,28,14.50
2011,09,15,00,29,14.50
2011,09,15,00,30,14.50
2011,09,15,00,31,14.50
2011,09,15,00,32,14.50
2011,09,15,00,33,14.50
2011,09,15,00,34,14.50
2011,09,15,00,35,14.40
2011,09,15,00,36,14.40
2011,09,15,00,37,14.40
2011,09,15,00,38,14.40
2011,09,15,00,39,14.40
2011,09,15,00,40,14.40
2011,09,15,00,41,14.40
2011,09,15,00,42,14.40
2011,09,15,00,43,14.40
2011,09,15,00,44,14.40
2011,09,15,00,45,14.40
2011,09,15,00,46,14.40
2011,09,15,00,47,14.40
2011,09,15,00,48,14.30
2011,09,15,00,49,14.30
2011,09,15,00,50,14.30
2011,09,15,00,51,14.30
2011,09,15,00,52,14.30
2011,09,15,00,53,14.30
2011,09,15,00,54,14.30
2011,09,15,00,55,14.30
2011,09,15,00,56,14.30
2011,09,15,00,57,14.30
2011,09,15,00,58,14.30
2011,09,15,00,59,14.30
2011,09,15,01,00,14.30
2011,09,15,01,01,14.30
2011,09,15,01,02,14.30
2011,09,15,01,03,14.30
2011,09,15,01,04,14.30
2011,09,15,01,05,14.30
2011,09,15,01,06,14.20
2011,09,15,01,07,14.20
2011,09,15,01,08,14.20
2011,09,15,01,09,14.20
2011,09,15,01,10,14.20
2011,09,15,01,11,14.20
2011,09,15,01,12,14.20
2011,09,15,01,13,14.20
2011,09,15,01,14,14.20
2011,09,15,01,15,14.20
2011,09,15,01,16,14.20
2011,09,15,01,17,14.20
2011,09,15,01,18,14.20
2011,09,15,01,19,14.20
2011,09,15,01,20,14.30
2011,09,15,01,21,14.30
2011,09,15,01,22,14.30
2011,09,15,01,23,14.30
2011,09,15,01,24,14.30
2011,09,15,01,25,14.30
2011,09,15,01,26,14.30
2011,09,15,01,27,14.30
2011,09,15,01,28,14.30
2011,09,15,01,29,14.30
2011,09,15,01,30,14.30
2011,09,15,01,31,14.30
2011,09,15,01,32,14.30
2011,09,15,01,33,14.30
2011,09,15,01,34,14.30
2011,09,15,01,35,14.30
2011,09,15,01,36,14.30
2011,09,15,01,37,14.30
2011,09,15,01,38,14.30
2011,09,15,01,39,14.30
2011,09,15,01,40,14.30
2011,09,15,01,41,14.30
2011,09,15,01,42,14.30
2011,09,15,01,43,14.30
2011,09,15,01,44,14.30
2011,09,15,01,45,14.30
2011,09,15,01,46,14.30
2011,09,15,01,47,14.30
2011,09,15,01,48,14.30
2011,09,15,01,49,14.30
2011,09,15,01,50,14.30
2011,09,15,01,51,14.30
2011,09,15,01,52,14.30
2011,09,15,01,53,14.30
2011,09,15,01,54,14.30
2011,09,15,01,55,14.40
2011,09,15,01,56,14.40
2011,09,15,01,57,14.40
2011,09,15,01,58,14.40
2011,09,15,01,59,14.40
2011,09,15,02,00,14.40
2011,09,15,02,01,14.40
2011,09,15,02,02,14.40
2011,09,15,02,03,14.40
2011,09,15,02,04,14.40
2011,09,15,02,05,14.40
2011,09,15,02,06,14.40
2011,09,15,02,07,14.40
2011,09,15,02,08,14.30
2011,09,15,02,09,14.30
2011,09,15,02,10,14.30
2011,09,15,02,11,14.30
2011,09,15,02,12,14.30
2011,09,15,02,13,14.30
2011,09,15,02,14,14.40
2011,09,15,02,15,14.40
2011,09,15,02,16,14.40
2011,09,15,02,17,14.40
2011,09,15,02,18,14.40
2011,09,15,02,19,14.40
2011,09,15,02,20,14.40
2011,09,15,02,21,14.40
2011,09,15,02,22,14.40
2011,09,15,02,23,14.40
2011,09,15,02,24,14.40
2011,09,15,02,25,14.40
2011,09,15,02,26,14.40
2011,09,15,02,27,14.40
2011,09,15,02,28,14.40
2011,09,15,02,29,14.40
2011,09,15,02,30,14.40
2011,09,15,02,31,14.40
2011,09,15,02,32,14.40
2011,09,15,02,33,14.40
2011,09,15,02,34,14.50
2011,09,15,02,35,14.50
2011,09,15,02,36,14.50
2011,09,15,02,37,14.50
2011,09,15,02,38,14.50
2011,09,15,02,39,14.50
2011,09,15,02,40,14.50
2011,09,15,02,41,14.60
2011,09,15,02,42,14.50
2011,09,15,02,43,14.50
2011,09,15,02,44,14.50
2011,09,15,02,45,14.50
2011,09,15,02,46,14.40
2011,09,15,02,47,14.40
2011,09,15,02,48,14.40
2011,09,15,02,49,14.40
2011,09,15,02,50,14.40
2011,09,15,02,51,14.40
2011,09,15,02,52,14.40
2011,09,15,02,53,14.40
2011,09,15,02,54,14.40
2011,09,15,02,55,14.40
2011,09,15,02,56,14.30
2011,09,15,02,57,14.30
2011,09,15,02,58,14.30
2011,09,15,02,59,14.30
2011,09,15,03,00,14.30
2011,09,15,03,01,14.40
2011,09,15,03,02,14.40
2011,09,15,03,03,14.40
2011,09,15,03,06,14.40
2011,09,15,03,07,14.40
2011,09,15,03,08,14.40
2011,09,15,03,09,14.40
2011,09,15,03,10,14.50
2011,09,15,03,11,14.50
2011,09,15,03,12,14.50
2011,09,15,03,13,14.50
2011,09,15,03,14,14.50
2011,09,15,03,15,14.40
2011,09,15,03,16,14.40
2011,09,15,03,17,14.40
2011,09,15,03,18,14.40
2011,09,15,03,19,14.30
2011,09,15,03,20,14.30
2011,09,15,03,21,14.30
2011,09,15,03,22,14.30
2011,09,15,03,23,14.30
2011,09,15,03,24,14.30
2011,09,15,03,25,14.30
2011,09,15,03,26,14.30
2011,09,15,03,27,14.30
2011,09,15,03,28,14.30
2011,09,15,03,29,14.30
2011,09,15,03,30,14.20
2011,09,15,03,31,14.20
2011,09,15,03,32,14.20
2011,09,15,03,33,14.20
2011,09,15,03,34,14.20
2011,09,15,03,35,14.20
2011,09,15,03,36,14.20
2011,09,15,03,37,14.20
2011,09,15,03,38,14.20
2011,09,15,03,39,14.20
2011,09,15,03,40,14.20
2011,09,15,03,41,14.20
2011,09,15,03,42,14.20
2011,09,15,03,43,14.20
2011,09,15,03,44,14.20
2011,09,15,03,45,14.20
2011,09,15,03,46,14.20
2011,09,15,03,47,14.20
2011,09,15,03,48,14.20
2011,09,15,03,49,14.20
2011,09,15,03,50,14.20
2011,09,15,03,51,14.20
2011,09,15,03,52,14.20
2011,09,15,03,53,14.20
2011,09,15,03,54,14.20
2011,09,15,03,55,14.20
2011,09,15,03,56,14.20
2011,09,15,03,57,14.20
2011,09,15,03,58,14.20
2011,09,15,03,59,14.20
2011,09,15,04,00,14.20
2011,09,15,04,01,14.20
2011,09,15,04,02,14.20
2011,09,15,04,03,14.20
2011,09,15,04,04,14.10
2011,09,15,04,05,14.10
2011,09,15,04,06,14.10
2011,09,15,04,07,14.10
2011,09,15,04,08,14.10
2011,09,15,04,09,14.10
2011,09,15,04,10,14.10
2011,09,15,04,11,14.10
2011,09,15,04,12,14.10
2011,09,15,04,13,14.10
2011,09,15,04,14,14.10
2011,09,15,04,15,14.00
2011,09,15,04,16,14.00
2011,09,15,04,17,14.00
2011,09,15,04,18,14.00
2011,09,15,04,19,14.00
2011,09,15,04,20,14.00
2011,09,15,04,21,14.00
2011,09,15,04,22,14.00
2011,09,15,04,23,14.00
2011,09,15,04,24,14.00
2011,09,15,04,25,14.00
2011,09,15,04,26,14.00
2011,09,15,04,27,14.00
2011,09,15,04,28,14.00
2011,09,15,04,29,13.90
2011,09,15,04,30,13.90
2011,09,15,04,31,13.90
2011,09,15,04,32,13.90
2011,09,15,04,33,13.90
2011,09,15,04,34,13.90
2011,09,15,04,35,13.90
2011,09,15,04,36,13.90
2011,09,15,04,37,13.90
2011,09,15,04,38,13.90
2011,09,15,04,39,13.90
2011,09,15,04,40,13.90
2011,09,15,04,41,13.90
2011,09,15,04,42,13.90
2011,09,15,04,43,13.90
2011,09,15,04,44,13.90
2011,09,15,04,45,13.90
2011,09,15,04,46,13.80
2011,09,15,04,47,13.80
2011,09,15,04,48,13.80
2011,09,15,04,49,13.80
2011,09,15,04,50,13.80
2011,09,15,04,51,13.80
2011,09,15,04,52,13.80
2011,09,15,04,53,13.80
2011,09,15,04,54,13.80
2011,09,15,04,55,13.80
2011,09,15,04,56,13.80
2011,09,15,04,57,13.80
2011,09,15,04,58,13.80
2011,09,15,04,59,13.80
2011,09,15,05,00,13.80
2011,09,15,05,01,13.80
2011,09,15,05,02,13.70
2011,09,15,05,03,13.70
2011,09,15,05,04,13.70
2011,09,15,05,05,13.70
2011,09,15,05,06,13.70
2011,09,15,05,07,13.70
2011,09,15,05,08,13.70
2011,09,15,05,09,13.70
2011,09,15,05,10,13.70
2011,09,15,05,11,13.70
2011,09,15,05,12,13.70
2011,09,15,05,13,13.70
2011,09,15,05,14,13.70
2011,09,15,05,15,13.70
2011,09,15,05,16,13.70
2011,09,15,05,17,13.70
2011,09,15,05,18,13.70
2011,09,15,05,19,13.70
2011,09,15,05,20,13.70
2011,09,15,05,21,13.70
2011,09,15,05,22,13.70
2011,09,15,05,23,13.70
2011,09,15,05,24,13.70
2011,09,15,05,25,13.70
2011,09,15,05,26,13.70
2011,09,15,05,27,13.70
2011,09,15,05,28,13.70
2011,09,15,05,29,13.70
2011,09,15,05,30,13.70
2011,09,15,05,31,13.70
2011,09,15,05,32,13.70
2011,09,15,05,33,13.70
2011,09,15,05,34,13.70
2011,09,15,05,35,13.70
2011,09,15,05,36,13.70
2011,09,15,05,37,13.70
2011,09,15,05,38,13.70
2011,09,15,05,39,13.70
2011,09,15,05,40,13.70
2011,09,15,05,41,13.70
2011,09,15,05,42,13.70
2011,09,15,05,43,13.70
2011,09,15,05,44,13.70
2011,09,15,05,45,13.70
2011,09,15,05,46,13.70
2011,09,15,05,47,13.70
2011,09,15,05,48,13.70
2011,09,15,05,49,13.70
2011,09,15,05,50,13.70
2011,09,15,05,51,13.70
2011,09,15,05,52,13.70
2011,09,15,05,53,13.70
2011,09,15,05,54,13.80
2011,09,15,05,55,13.80
2011,09,15,05,56,13.80
2011,09,15,05,57,13.80
2011,09,15,05,58,13.80
2011,09,15,05,59,13.80
2011,09,15,06,00,13.80
2011,09,15,06,01,13.80
2011,09,15,06,02,13.80
2011,09,15,06,03,13.80
2011,09,15,06,04,13.80
2011,09,15,06,05,13.80
2011,09,15,06,06,13.80
2011,09,15,06,07,13.80
2011,09,15,06,08,13.80
2011,09,15,06,09,13.80
2011,09,15,06,10,13.80
2011,09,15,06,11,13.80
2011,09,15,06,12,13.80
2011,09,15,06,13,13.80
2011,09,15,06,14,13.70
2011,09,15,06,15,13.70
2011,09,15,06,16,13.70
2011,09,15,06,17,13.70
2011,09,15,06,18,13.70
2011,09,15,06,19,13.70
2011,09,15,06,20,13.60
2011,09,15,06,21,13.60
2011,09,15,06,22,13.60
2011,09,15,06,23,13.60
2011,09,15,06,24,13.60
2011,09,15,06,25,13.60
2011,09,15,06,26,13.60
2011,09,15,06,27,13.50
2011,09,15,06,28,13.50
2011,09,15,06,29,13.50
2011,09,15,06,30,13.40
2011,09,15,06,31,13.40
2011,09,15,06,32,13.40
2011,09,15,06,33,13.40
2011,09,15,06,34,13.40
2011,09,15,06,35,13.40
2011,09,15,06,36,13.40
2011,09,15,06,37,13.40
2011,09,15,06,38,13.40
2011,09,15,06,39,13.40
2011,09,15,06,40,13.40
2011,09,15,06,41,13.40
2011,09,15,06,42,13.30
2011,09,15,06,43,13.30
2011,09,15,06,44,13.40
2011,09,15,06,45,13.40
2011,09,15,06,46,13.40
2011,09,15,06,47,13.40
2011,09,15,06,48,13.40
2011,09,15,06,49,13.40
2011,09,15,06,50,13.40
2011,09,15,06,51,13.30
2011,09,15,06,52,13.30
2011,09,15,06,53,13.30
2011,09,15,06,54,13.30
2011,09,15,06,55,13.30
2011,09,15,06,56,13.30
2011,09,15,06,57,13.30
2011,09,15,06,58,13.40
2011,09,15,06,59,13.50
2011,09,15,07,00,13.60
2011,09,15,07,01,13.70
2011,09,15,07,02,13.80
2011,09,15,07,03,13.80
2011,09,15,07,04,13.90
2011,09,15,07,05,14.00
2011,09,15,07,06,14.10
2011,09,15,07,07,14.10
2011,09,15,07,08,14.10
2011,09,15,07,09,14.20
2011,09,15,07,10,14.20
2011,09,15,07,11,14.20
2011,09,15,07,12,14.20
2011,09,15,07,13,14.20
2011,09,15,07,14,14.20
2011,09,15,07,15,14.20
2011,09,15,07,16,14.20
2011,09,15,07,17,14.20
2011,09,15,07,18,14.30
2011,09,15,07,19,14.30
2011,09,15,07,20,14.30
2011,09,15,07,21,14.30
2011,09,15,07,22,14.30
2011,09,15,07,23,14.30
2011,09,15,07,24,14.30
2011,09,15,07,25,14.30
2011,09,15,07,26,14.30
2011,09,15,07,27,14.30
2011,09,15,07,28,14.30
2011,09,15,07,29,14.30
2011,09,15,07,30,14.30
2011,09,15,07,31,14.40
2011,09,15,07,32,14.40
2011,09,15,07,33,14.40
2011,09,15,07,34,14.40
2011,09,15,07,35,14.40
2011,09,15,07,36,14.40
2011,09,15,07,37,14.40
2011,09,15,07,38,14.40
2011,09,15,07,39,14.40
2011,09,15,07,40,14.50
2011,09,15,07,41,14.50
2011,09,15,07,42,14.50
2011,09,15,07,43,14.50
2011,09,15,07,44,14.50
2011,09,15,07,45,14.60
2011,09,15,07,46,14.60
2011,09,15,07,47,14.60
2011,09,15,07,48,14.60
2011,09,15,07,49,14.70
2011,09,15,07,50,14.70
2011,09,15,07,51,14.70
2011,09,15,07,52,14.80
2011,09,15,07,53,14.80
2011,09,15,07,54,14.80
2011,09,15,07,55,14.80
2011,09,15,07,56,14.90
2011,09,15,07,57,14.90
2011,09,15,07,58,15.00
2011,09,15,07,59,15.00
2011,09,15,08,00,15.00
2011,09,15,08,01,15.00
2011,09,15,08,02,15.00
2011,09,15,08,03,14.90
2011,09,15,08,04,14.80
2011,09,15,08,05,14.80
2011,09,15,08,06,14.70
2011,09,15,08,07,14.70
2011,09,15,08,08,14.60
2011,09,15,08,09,14.60
2011,09,15,08,10,14.60
2011,09,15,08,11,14.60
2011,09,15,08,12,14.60
2011,09,15,08,13,14.60
2011,09,15,08,14,14.60
2011,09,15,08,15,14.60
2011,09,15,08,16,14.60
2011,09,15,08,17,14.50
2011,09,15,08,18,14.50
2011,09,15,08,19,14.50
2011,09,15,08,20,14.50
2011,09,15,08,21,14.50
2011,09,15,08,22,14.50
2011,09,15,08,23,14.60
2011,09,15,08,24,14.60
2011,09,15,08,25,14.60
2011,09,15,08,26,14.60
2011,09,15,08,27,14.60
2011,09,15,08,28,14.50
2011,09,15,08,29,14.50
2011,09,15,08,30,14.60
2011,09,15,08,31,14.60
2011,09,15,08,32,14.60
2011,09,15,08,33,14.60
2011,09,15,08,34,14.60
2011,09,15,08,35,14.70
2011,09,15,08,36,14.70
2011,09,15,08,37,14.70
2011,09,15,08,38,14.70
2011,09,15,08,39,14.80
2011,09,15,08,40,14.80
2011,09,15,08,41,14.80
2011,09,15,08,42,14.90
2011,09,15,08,43,15.00
2011,09,15,08,44,15.00
2011,09,15,08,45,15.00
2011,09,15,08,46,15.00
2011,09,15,08,47,15.00
2011,09,15,08,48,15.00
2011,09,15,08,49,15.00
2011,09,15,08,50,15.00
2011,09,15,08,51,15.00
2011,09,15,08,52,15.00
2011,09,15,08,53,15.00
2011,09,15,08,54,15.00
2011,09,15,08,55,15.10
2011,09,15,08,56,15.10
2011,09,15,08,57,15.10
2011,09,15,08,58,15.20
2011,09,15,08,59,15.20
2011,09,15,09,00,15.20
2011,09,15,09,01,15.20
2011,09,15,09,02,15.20
2011,09,15,09,03,15.30
2011,09,15,09,04,15.30
2011,09,15,09,05,15.30
2011,09,15,09,06,15.30
2011,09,15,09,07,15.40
2011,09,15,09,08,15.40
2011,09,15,09,09,15.40
2011,09,15,09,10,15.40
2011,09,15,09,11,15.50
2011,09,15,09,12,15.50
2011,09,15,09,13,15.60
2011,09,15,09,14,15.60
2011,09,15,09,15,15.60
2011,09,15,09,16,15.70
2011,09,15,09,17,15.70
2011,09,15,09,18,15.70
2011,09,15,09,19,15.70
2011,09,15,09,20,15.70
2011,09,15,09,21,15.80
2011,09,15,09,22,15.80
2011,09,15,09,23,15.80
2011,09,15,09,24,15.80
2011,09,15,09,25,15.80
2011,09,15,09,26,15.80
2011,09,15,09,27,15.90
2011,09,15,09,28,15.90
2011,09,15,09,29,15.90
2011,09,15,09,30,15.90
2011,09,15,09,31,16.00
2011,09,15,09,32,16.00
2011,09,15,09,33,16.10
2011,09,15,09,34,16.10
2011,09,15,09,35,16.10
2011,09,15,09,36,16.20
2011,09,15,09,37,16.20
2011,09,15,09,38,16.20
2011,09,15,09,39,16.20
2011,09,15,09,40,16.20
2011,09,15,09,41,16.20
2011,09,15,09,42,16.20
2011,09,15,09,43,16.20
2011,09,15,09,44,16.20
2011,09,15,09,45,16.20
2011,09,15,09,46,16.20
2011,09,15,09,47,16.20
2011,09,15,09,48,16.20
2011,09,15,09,49,16.20
2011,09,15,09,50,16.30
2011,09,15,09,51,16.30
2011,09,15,09,52,16.30
2011,09,15,09,53,16.30
2011,09,15,09,54,16.40
2011,09,15,09,55,16.40
2011,09,15,09,56,16.40
2011,09,15,09,57,16.40
2011,09,15,09,58,16.40
2011,09,15,09,59,16.40
2011,09,15,10,00,16.50
2011,09,15,10,01,16.60
2011,09,15,10,02,16.60
2011,09,15,10,03,16.70
2011,09,15,10,04,16.70
2011,09,15,10,05,16.80
2011,09,15,10,06,16.90
2011,09,15,10,07,17.00
2011,09,15,10,08,17.20
2011,09,15,10,09,17.30
2011,09,15,10,10,17.50
2011,09,15,10,11,17.60
2011,09,15,10,12,17.70
2011,09,15,10,13,17.70
2011,09,15,10,14,17.80
2011,09,15,10,15,17.70
2011,09,15,10,16,17.70
2011,09,15,10,17,17.60
2011,09,15,10,18,17.60
2011,09,15,10,19,17.50
2011,09,15,10,20,17.40
2011,09,15,10,21,17.40
2011,09,15,10,22,17.30
2011,09,15,10,23,17.30
2011,09,15,10,24,17.30
2011,09,15,10,25,17.30
2011,09,15,10,26,17.30
2011,09,15,10,27,17.30
2011,09,15,10,28,17.30
2011,09,15,10,29,17.40
2011,09,15,10,30,17.40
2011,09,15,10,31,17.40
2011,09,15,10,32,17.40
2011,09,15,10,33,17.40
2011,09,15,10,34,17.40
2011,09,15,10,35,17.50
2011,09,15,10,36,17.50
2011,09,15,10,37,17.50
2011,09,15,10,38,17.50
2011,09,15,10,39,17.50
2011,09,15,10,40,17.50
2011,09,15,10,41,17.50
2011,09,15,10,42,17.50
2011,09,15,10,43,17.40
2011,09,15,10,44,17.40
2011,09,15,10,45,17.30
2011,09,15,10,46,17.30
2011,09,15,10,47,17.30
2011,09,15,10,48,17.30
2011,09,15,10,49,17.30
2011,09,15,10,50,17.30
2011,09,15,10,51,17.20
2011,09,15,10,52,17.20
2011,09,15,10,53,17.20
2011,09,15,10,54,17.20
2011,09,15,10,55,17.20
2011,09,15,10,56,17.20
2011,09,15,10,57,17.20
2011,09,15,10,58,17.30
2011,09,15,10,59,17.30
2011,09,15,11,00,17.30
2011,09,15,11,01,17.30
2011,09,15,11,02,17.40
2011,09,15,11,03,17.40
2011,09,15,11,04,17.40
2011,09,15,11,05,17.40
2011,09,15,11,06,17.40
2011,09,15,11,07,17.40
2011,09,15,11,08,17.40
2011,09,15,11,09,17.30
2011,09,15,11,10,17.30
2011,09,15,11,11,17.30
2011,09,15,11,12,17.20
2011,09,15,11,13,17.20
2011,09,15,11,14,17.20
2011,09,15,11,15,17.30
2011,09,15,11,16,17.30
2011,09,15,11,17,17.30
2011,09,15,11,18,17.30
2011,09,15,11,19,17.30
2011,09,15,11,20,17.30
2011,09,15,11,21,17.40
2011,09,15,11,22,17.40
2011,09,15,11,23,17.50
2011,09,15,11,24,17.50
2011,09,15,11,25,17.50
2011,09,15,11,26,17.60
2011,09,15,11,27,17.60
2011,09,15,11,28,17.60
2011,09,15,11,29,17.50
2011,09,15,11,30,17.50
2011,09,15,11,31,17.40
2011,09,15,11,32,17.30
2011,09,15,11,33,17.30
2011,09,15,11,34,17.20
2011,09,15,11,35,17.20
2011,09,15,11,36,17.10
2011,09,15,11,37,17.10
2011,09,15,11,38,17.10
2011,09,15,11,39,17.10
2011,09,15,11,40,17.10
2011,09,15,11,41,17.10
2011,09,15,11,42,17.10
2011,09,15,11,43,17.10
2011,09,15,11,44,17.10
2011,09,15,11,45,17.10
2011,09,15,11,46,17.00
2011,09,15,11,47,17.00
2011,09,15,11,48,17.00
2011,09,15,11,49,16.90
2011,09,15,11,50,16.90
2011,09,15,11,51,16.90
2011,09,15,11,52,16.90
2011,09,15,11,53,16.90
2011,09,15,11,54,16.90
2011,09,15,11,55,16.90
2011,09,15,11,56,17.00
2011,09,15,11,57,17.10
2011,09,15,11,58,17.10
2011,09,15,11,59,17.10
2011,09,15,12,00,17.10
2011,09,15,12,01,17.10
2011,09,15,12,02,17.10
2011,09,15,12,03,17.10
2011,09,15,12,04,17.10
2011,09,15,12,05,17.00
2011,09,15,12,06,17.00
2011,09,15,12,07,16.90
2011,09,15,12,08,16.90
2011,09,15,12,09,16.80
2011,09,15,12,10,16.80
2011,09,15,12,11,16.80
2011,09,15,12,12,16.80
2011,09,15,12,13,16.70
2011,09,15,12,14,16.70
2011,09,15,12,15,16.70
2011,09,15,12,16,16.70
2011,09,15,12,17,16.70
2011,09,15,12,18,16.60
2011,09,15,12,19,16.60
2011,09,15,12,20,16.50
2011,09,15,12,21,16.50
2011,09,15,12,22,16.50
2011,09,15,12,23,16.60
2011,09,15,12,24,16.60
2011,09,15,12,25,16.60
2011,09,15,12,26,16.70
2011,09,15,12,27,16.70
2011,09,15,12,28,16.70
2011,09,15,12,29,16.80
2011,09,15,12,30,16.80
2011,09,15,12,31,16.90
2011,09,15,12,32,17.00
2011,09,15,12,33,17.10
2011,09,15,12,34,17.10
2011,09,15,12,35,17.20
2011,09,15,12,36,17.20
2011,09,15,12,37,17.20
2011,09,15,12,38,17.20
2011,09,15,12,39,17.20
2011,09,15,12,40,17.20
2011,09,15,12,41,17.20
2011,09,15,12,42,17.20
2011,09,15,12,43,17.20
2011,09,15,12,44,17.20
2011,09,15,12,45,17.20
2011,09,15,12,46,17.20
2011,09,15,12,47,17.10
2011,09,15,12,48,17.10
2011,09,15,12,49,17.10
2011,09,15,12,50,17.10
2011,09,15,12,51,17.10
2011,09,15,12,52,17.10
2011,09,15,12,53,17.10
2011,09,15,12,54,17.10
2011,09,15,12,55,17.10
2011,09,15,12,56,17.10
2011,09,15,12,57,17.10
2011,09,15,12,58,17.10
2011,09,15,12,59,17.10
2011,09,15,13,00,17.10
2011,09,15,13,01,17.10
2011,09,15,13,02,17.10
2011,09,15,13,03,17.10
2011,09,15,13,04,17.10
2011,09,15,13,05,17.10
2011,09,15,13,06,17.00
2011,09,15,13,07,17.00
2011,09,15,13,08,17.00
2011,09,15,13,09,17.00
2011,09,15,13,10,16.90
2011,09,15,13,11,17.00
2011,09,15,13,12,16.90
2011,09,15,13,13,17.00
2011,09,15,13,14,17.00
2011,09,15,13,15,17.00
2011,09,15,13,16,17.00
2011,09,15,13,17,17.00
2011,09,15,13,18,16.90
2011,09,15,13,19,16.90
2011,09,15,13,20,16.90
2011,09,15,13,21,17.00
2011,09,15,13,22,17.00
2011,09,15,13,23,17.00
2011,09,15,13,24,17.00
2011,09,15,13,25,17.00
2011,09,15,13,26,17.00
2011,09,15,13,27,17.00
2011,09,15,13,28,17.00
2011,09,15,13,29,17.00
2011,09,15,13,30,17.10
2011,09,15,13,31,17.10
2011,09,15,13,32,17.10
2011,09,15,13,33,17.10
2011,09,15,13,34,17.10
2011,09,15,13,35,17.10
2011,09,15,13,36,17.20
2011,09,15,13,37,17.20
2011,09,15,13,38,17.20
2011,09,15,13,39,17.30
2011,09,15,13,40,17.30
2011,09,15,13,41,17.40
2011,09,15,13,42,17.40
2011,09,15,13,43,17.40
2011,09,15,13,44,17.40
2011,09,15,13,45,17.40
2011,09,15,13,46,17.40
2011,09,15,13,47,17.40
2011,09,15,13,48,17.40
2011,09,15,13,49,17.40
2011,09,15,13,50,17.40
2011,09,15,13,51,17.40
2011,09,15,13,52,17.30
2011,09,15,13,53,17.30
2011,09,15,13,54,17.30
2011,09,15,13,55,17.30
2011,09,15,13,56,17.40
2011,09,15,13,57,17.40
2011,09,15,13,58,17.40
2011,09,15,13,59,17.40
2011,09,15,14,00,17.40
2011,09,15,14,01,17.50
2011,09,15,14,02,17.50
2011,09,15,14,03,17.60
2011,09,15,14,04,17.60
2011,09,15,14,05,17.70
2011,09,15,14,06,17.70
2011,09,15,14,07,17.70
2011,09,15,14,08,17.70
2011,09,15,14,09,17.70
2011,09,15,14,10,17.70
2011,09,15,14,11,17.80
2011,09,15,14,12,17.80
2011,09,15,14,13,17.80
2011,09,15,14,14,17.80
2011,09,15,14,15,17.80
2011,09,15,14,16,17.80
2011,09,15,14,17,17.80
2011,09,15,14,18,17.80
2011,09,15,14,19,17.80
2011,09,15,14,20,17.80
2011,09,15,14,21,17.80
2011,09,15,14,22,17.90
2011,09,15,14,23,17.90
2011,09,15,14,24,17.90
2011,09,15,14,25,18.00
2011,09,15,14,26,18.00
2011,09,15,14,27,18.10
2011,09,15,14,28,18.10
2011,09,15,14,29,18.20
2011,09,15,14,30,18.20
2011,09,15,14,31,18.30
2011,09,15,14,32,18.40
2011,09,15,14,33,18.40
2011,09,15,14,34,18.50
2011,09,15,14,35,18.50
2011,09,15,14,36,18.60
2011,09,15,14,37,18.70
2011,09,15,14,38,18.60
2011,09,15,14,39,18.60
2011,09,15,14,40,18.60
2011,09,15,14,41,18.70
2011,09,15,14,42,18.70
2011,09,15,14,43,18.60
2011,09,15,14,44,18.60
2011,09,15,14,45,18.60
2011,09,15,14,46,18.60
2011,09,15,14,47,18.60
2011,09,15,14,48,18.60
2011,09,15,14,49,18.70
2011,09,15,14,50,18.80
2011,09,15,14,51,18.80
2011,09,15,14,52,18.80
2011,09,15,14,53,18.80
2011,09,15,14,54,18.70
2011,09,15,14,55,18.60
2011,09,15,14,56,18.60
2011,09,15,14,57,18.60
2011,09,15,14,58,18.50
2011,09,15,14,59,18.40
2011,09,15,15,00,18.40
2011,09,15,15,01,18.30
2011,09,15,15,02,18.30
2011,09,15,15,03,18.30
2011,09,15,15,04,18.30
2011,09,15,15,05,18.30
2011,09,15,15,06,18.30
2011,09,15,15,07,18.30
2011,09,15,15,08,18.30
2011,09,15,15,09,18.30
2011,09,15,15,10,18.40
2011,09,15,15,11,18.40
2011,09,15,15,12,18.40
2011,09,15,15,13,18.50
2011,09,15,15,14,18.50
2011,09,15,15,15,18.60
2011,09,15,15,16,18.60
2011,09,15,15,17,18.60
2011,09,15,15,18,18.70
2011,09,15,15,19,18.70
2011,09,15,15,20,18.70
2011,09,15,15,21,18.70
2011,09,15,15,22,18.70
2011,09,15,15,23,18.70
2011,09,15,15,24,18.70
2011,09,15,15,25,18.70
2011,09,15,15,26,18.70
2011,09,15,15,27,18.80
2011,09,15,15,28,18.80
2011,09,15,15,29,18.80
2011,09,15,15,30,18.80
2011,09,15,15,31,18.80
2011,09,15,15,32,18.80
2011,09,15,15,33,18.80
2011,09,15,15,34,18.80
2011,09,15,15,35,18.80
2011,09,15,15,36,18.80
2011,09,15,15,37,18.80
2011,09,15,15,38,18.80
2011,09,15,15,39,18.90
2011,09,15,15,40,18.90
2011,09,15,15,41,18.90
2011,09,15,15,42,18.90
2011,09,15,15,43,19.00
2011,09,15,15,44,19.00
2011,09,15,15,45,19.10
2011,09,15,15,46,19.10
2011,09,15,15,47,19.20
2011,09,15,15,48,19.20
2011,09,15,15,49,19.30
2011,09,15,15,50,19.40
2011,09,15,15,51,19.50
2011,09,15,15,52,19.60
2011,09,15,15,53,19.70
2011,09,15,15,54,19.70
2011,09,15,15,55,19.80
2011,09,15,15,56,19.70
2011,09,15,15,57,19.70
2011,09,15,15,58,19.70
2011,09,15,15,59,19.70
2011,09,15,16,00,19.70
2011,09,15,16,01,19.60
2011,09,15,16,02,19.70
2011,09,15,16,03,19.70
2011,09,15,16,04,19.80
2011,09,15,16,05,19.80
2011,09,15,16,06,19.80
2011,09,15,16,07,19.80
2011,09,15,16,08,19.80
2011,09,15,16,09,19.70
2011,09,15,16,10,19.60
2011,09,15,16,11,19.60
2011,09,15,16,12,19.50
2011,09,15,16,13,19.40
2011,09,15,16,14,19.30
2011,09,15,16,15,19.20
2011,09,15,16,16,19.20
2011,09,15,16,17,19.20
2011,09,15,16,18,19.30
2011,09,15,16,19,19.30
2011,09,15,16,20,19.30
2011,09,15,16,21,19.40
2011,09,15,16,22,19.50
2011,09,15,16,23,19.60
2011,09,15,16,24,19.70
2011,09,15,16,25,19.70
2011,09,15,16,26,19.70
2011,09,15,16,27,19.70
2011,09,15,16,28,19.70
2011,09,15,16,29,19.70
2011,09,15,16,30,19.70
2011,09,15,16,31,19.70
2011,09,15,16,32,19.70
2011,09,15,16,33,19.70
2011,09,15,16,34,19.70
2011,09,15,16,35,19.70
2011,09,15,16,36,19.60
2011,09,15,16,37,19.60
2011,09,15,16,38,19.60
2011,09,15,16,39,19.60
2011,09,15,16,40,19.60
2011,09,15,16,41,19.60
2011,09,15,16,42,19.60
2011,09,15,16,43,19.60
2011,09,15,16,44,19.60
2011,09,15,16,45,19.60
2011,09,15,16,46,19.60
2011,09,15,16,47,19.60
2011,09,15,16,48,19.60
2011,09,15,16,49,19.60
2011,09,15,16,50,19.60
2011,09,15,16,51,19.50
2011,09,15,16,52,19.50
2011,09,15,16,53,19.40
2011,09,15,16,54,19.40
2011,09,15,16,55,19.40
2011,09,15,16,56,19.40
2011,09,15,16,57,19.40
2011,09,15,16,58,19.40
2011,09,15,16,59,19.40
2011,09,15,17,00,19.40
2011,09,15,17,01,19.50
2011,09,15,17,02,19.40
2011,09,15,17,03,19.40
2011,09,15,17,04,19.40
2011,09,15,17,05,19.50
2011,09,15,17,06,19.50
2011,09,15,17,07,19.50
2011,09,15,17,08,19.50
2011,09,15,17,09,19.50
2011,09,15,17,10,19.40
2011,09,15,17,11,19.40
2011,09,15,17,12,19.30
2011,09,15,17,13,19.30
2011,09,15,17,14,19.30
2011,09,15,17,15,19.30
2011,09,15,17,16,19.30
2011,09,15,17,17,19.30
2011,09,15,17,18,19.30
2011,09,15,17,19,19.40
2011,09,15,17,20,19.30
2011,09,15,17,21,19.30